Flag for Germany Weather for the Past 2 Weeks in Neuburg an der Donau, Bavaria, Germany

Now
30 °F

Passing clouds.


Feels Like: 30 °F
Forecast: 31 / 43 °F
Wind: No wind

Location: Neuburg / Donau

Current Time: Feb 12, 2016 at 5:06:47 AM

Latest Report: Feb 12, 2016 at 4:20 AM


Visibility: N/A

Pressure: 29.71 "Hg

Humidity: 93%

Dew point: 28 °F

Location of Neuburg an der DonauLocation

Historic Weather in Neuburg an der Donau — Graph

°F

Neuburg an der Donau Temperature Yesterday

Maximum temperature yesterday: 43 °F (at 2:20 PM)
Minimum temperature yesterday: 30 °F (at 10:20 PM)
Average temperature yesterday: 36 °F

High & Low Weather Summary for the Past Weeks

 TemperatureHumidityPressure
High55 °F (Feb 1, 1:20 PM)100% (Jan 28, 8:20 PM)30.45 "Hg (Jan 28, 8:20 PM)
Low28 °F (Jan 30, 7:20 AM)47% (Feb 8, 1:20 PM)29.21 "Hg (Feb 9, 7:20 PM)
Average40 °F84%29.96 "Hg
* Reported Jan 28 3:20 AM — Feb 12 3:20 AM, Neuburg an der Donau, Weather by CustomWeather, © 2016

Note: Actual official high and low records may vary slightly from our data, if they occured in-between our weather recording intervals... More about our weather records

Advertising

Neuburg an der Donau Weather History for the Previous 24 Hours

 ConditionsComfort  
Time TempWeatherWind HumidityBarometerVisibility
3:20 AM
Fri, Feb 12
30 °FPartly cloudy.1 mph93%29.71 "HgN/A
2:20 AM30 °FPassing clouds.3 mph93%29.71 "HgN/A
1:20 AM30 °FPassing clouds.1 mph93%29.71 "HgN/A
12:20 AM30 °FPassing clouds.2 mph93%29.71 "HgN/A
11:20 PM
Thu, Feb 11
30 °FPassing clouds.2 mph93%29.71 "HgN/A
10:20 PM30 °FPassing clouds.No wind93%29.71 "HgN/A
9:20 PM32 °FPassing clouds.No wind87%29.71 "HgN/A
8:55 PM34 °FPassing clouds.No wind87%29.71 "HgN/A
8:20 PM36 °FPassing clouds.3 mph81%29.71 "HgN/A
7:20 PM37 °FPassing clouds.3 mph81%29.71 "HgN/A
6:20 PM37 °FPassing clouds.No wind75%29.71 "HgN/A
5:20 PM39 °FPartly sunny.3 mph70%29.71 "HgN/A
4:20 PM41 °FPartly sunny.9 mph66%29.71 "HgN/A
3:20 PM43 °FPartly sunny.14 mph61%29.71 "HgN/A
2:20 PM43 °FPartly sunny.10 mph66%29.71 "HgN/A
1:20 PM41 °FPartly sunny.13 mph70%29.74 "HgN/A
12:20 PM39 °FBroken clouds.15 mph70%29.74 "HgN/A
11:20 AM39 °FBroken clouds.13 mph70%29.74 "HgN/A
10:20 AM37 °FPartly sunny.7 mph81%29.74 "HgN/A
9:20 AM36 °FPartly sunny.8 mph81%29.74 "HgN/A
8:45 AM32 °FBroken clouds.3 mph100%29.74 "Hg5 mi
8:20 AM32 °FSnow showers. Mostly cloudy.6 mph100%29.71 "Hg1 mi
8:00 AM32 °FSnow showers. More clouds than sun.7 mph93%29.71 "Hg2 mi
7:20 AM34 °FLight snow. Overcast.9 mph93%29.71 "Hg4 mi
7:02 AM34 °FLight snow. Overcast.9 mph87%29.71 "Hg4 mi
6:20 AM36 °FLight snow. Mostly cloudy.9 mph81%29.68 "Hg5 mi
6:03 AM36 °FSnow. Fog.14 mph81%29.68 "Hg2 mi
5:20 AM36 °FLight snow. Passing clouds.10 mph81%29.68 "Hg5 mi
Weather by CustomWeather, © 2016

See weather overviewHow to use our weather pages